timestamp,wind_dir_avg,wind_spd_avg,wind_spd_max_dir,wind_spd_gust,battery_voltage,lat,long
2020-11-11 00:04:01+00:00,204.0,10.37,204.0,11.77,12.65,47.59359,-54.27349
2020-11-11 00:14:01+00:00,212.0,8.56,210.0,10.08,12.65,47.59359,-54.27349
2020-11-11 00:24:01+00:00,205.0,7.89,206.0,9.18,12.65,47.59359,-54.27349
2020-11-11 00:34:01+00:00,204.0,8.7,198.0,10.16,12.65,47.59359,-54.27349
2020-11-11 00:44:01+00:00,200.0,9.78,201.0,10.75,12.65,47.59359,-54.27349
2020-11-11 00:54:01+00:00,201.0,9.08,203.0,10.68,12.65,47.59359,-54.27349
2020-11-11 01:04:01+00:00,207.0,9.31,209.0,10.32,12.65,47.59359,-54.27349
2020-11-11 01:14:01+00:00,208.0,8.45,212.0,9.31,12.57,47.59359,-54.27349
2020-11-11 01:24:01+00:00,221.0,7.98,219.0,10.59,12.57,47.59359,-54.27349
2020-11-11 01:34:01+00:00,230.0,7.5,232.0,8.94,12.57,47.59359,-54.27349
2020-11-11 01:44:01+00:00,227.0,7.08,227.0,9.85,12.57,47.59359,-54.27349
2020-11-11 01:54:01+00:00,222.0,8.18,217.0,10.0,12.57,47.59359,-54.27349
2020-11-11 02:04:01+00:00,218.0,7.85,222.0,9.53,12.57,47.59359,-54.27349
2020-11-11 02:14:01+00:00,223.0,8.03,225.0,9.53,12.57,47.59359,-54.27349
2020-11-11 02:24:01+00:00,222.0,7.2,220.0,8.83,12.57,47.59359,-54.27349
2020-11-11 02:34:01+00:00,219.0,7.38,225.0,8.97,12.57,47.59359,-54.27349
2020-11-11 02:44:01+00:00,217.0,7.19,218.0,7.92,12.57,47.59359,-54.27349
2020-11-11 02:54:01+00:00,209.0,6.72,209.0,8.11,12.57,47.59359,-54.27349
2020-11-11 03:04:01+00:00,214.0,8.11,213.0,9.71,12.57,47.59359,-54.27349
2020-11-11 03:14:01+00:00,215.0,7.95,215.0,8.69,12.57,47.59359,-54.27349
2020-11-11 03:24:01+00:00,216.0,6.89,215.0,9.71,12.57,47.59359,-54.27349
2020-11-11 03:34:01+00:00,217.0,7.17,214.0,8.09,12.57,47.59359,-54.27349
2020-11-11 03:44:01+00:00,224.0,6.72,218.0,7.95,12.57,47.59359,-54.27349
2020-11-11 03:54:01+00:00,225.0,7.77,221.0,9.4,12.57,47.59359,-54.27349
2020-11-11 04:04:01+00:00,233.0,7.73,238.0,9.08,12.57,47.59359,-54.27349
2020-11-11 04:14:01+00:00,231.0,6.16,232.0,7.19,12.57,47.59359,-54.27349
2020-11-11 04:24:01+00:00,236.0,6.02,242.0,7.14,12.57,47.59359,-54.27349
2020-11-11 04:34:01+00:00,235.0,6.9,237.0,7.89,12.57,47.59359,-54.27349
2020-11-11 04:44:01+00:00,234.0,6.65,239.0,7.81,12.57,47.59359,-54.27349
2020-11-11 04:54:01+00:00,236.0,6.08,238.0,6.95,12.57,47.59359,-54.27349
2020-11-11 05:04:01+00:00,242.0,7.02,241.0,7.68,12.57,47.59359,-54.27349
2020-11-11 05:14:01+00:00,246.0,6.55,249.0,7.46,12.57,47.59359,-54.27349
2020-11-11 05:24:01+00:00,238.0,6.44,243.0,7.18,12.57,47.59359,-54.27349
2020-11-11 05:34:01+00:00,238.0,6.89,241.0,7.62,12.57,47.59359,-54.27349
2020-11-11 05:44:01+00:00,234.0,6.06,233.0,6.57,12.57,47.59359,-54.27349
2020-11-11 05:54:01+00:00,236.0,6.46,238.0,7.0,12.57,47.59359,-54.27349
2020-11-11 06:04:01+00:00,234.0,7.54,234.0,8.27,12.57,47.59359,-54.27349
2020-11-11 06:14:01+00:00,236.0,7.21,239.0,8.15,12.49,47.59359,-54.27349
2020-11-11 06:24:01+00:00,236.0,5.55,237.0,6.14,12.49,47.59359,-54.27349
2020-11-11 06:34:01+00:00,230.0,5.79,230.0,6.58,12.49,47.59359,-54.27349
2020-11-11 06:44:01+00:00,232.0,6.12,234.0,6.88,12.49,47.59359,-54.27349
2020-11-11 06:54:01+00:00,239.0,5.55,237.0,6.52,12.49,47.59359,-54.27349
2020-11-11 07:04:01+00:00,243.0,4.32,239.0,4.98,12.49,47.59359,-54.27349
2020-11-11 07:14:01+00:00,243.0,2.52,242.0,3.14,12.49,47.59359,-54.27349
2020-11-11 07:24:01+00:00,149.0,1.05,126.0,1.54,12.49,47.59359,-54.27349
2020-11-11 07:34:01+00:00,171.0,1.53,174.0,2.18,12.49,47.59359,-54.27349
2020-11-11 07:44:01+00:00,178.0,3.34,178.0,3.6,12.49,47.59359,-54.27349
2020-11-11 07:54:01+00:00,169.0,4.71,166.0,5.16,12.49,47.59359,-54.27349
2020-11-11 08:04:01+00:00,180.0,3.55,174.0,4.39,12.49,47.59359,-54.27349
2020-11-11 08:14:01+00:00,172.0,3.49,179.0,4.61,12.49,47.59359,-54.27349
2020-11-11 08:24:01+00:00,207.0,1.86,205.0,2.78,12.49,47.59359,-54.27349
2020-11-11 08:34:01+00:00,212.0,3.24,228.0,4.18,12.49,47.59359,-54.27349
2020-11-11 08:44:01+00:00,205.0,2.2,197.0,2.63,12.49,47.59359,-54.27349
2020-11-11 08:54:01+00:00,226.0,2.32,234.0,2.76,12.49,47.59359,-54.27349
2020-11-11 09:04:01+00:00,265.0,4.38,270.0,5.57,12.49,47.59359,-54.27349
2020-11-11 09:14:01+00:00,90.0,0.95,69.0,1.56,12.49,47.59359,-54.27349
2020-11-11 09:24:01+00:00,232.0,1.17,246.0,1.68,12.49,47.59359,-54.27349
2020-11-11 09:34:01+00:00,259.0,2.39,260.0,3.04,12.49,47.59359,-54.27349
2020-11-11 09:44:01+00:00,278.0,4.19,278.0,4.95,12.49,47.59359,-54.27349
2020-11-11 09:54:01+00:00,272.0,3.94,274.0,4.44,12.49,47.59359,-54.27349
2020-11-11 10:04:01+00:00,295.0,3.86,290.0,4.72,12.49,47.59359,-54.27349
2020-11-11 10:14:01+00:00,297.0,2.86,286.0,3.85,12.49,47.59359,-54.27349
2020-11-11 10:24:01+00:00,288.0,4.55,288.0,5.0,12.49,47.59359,-54.27349
2020-11-11 10:34:01+00:00,295.0,2.71,292.0,2.99,12.49,47.59359,-54.27349
2020-11-11 10:44:01+00:00,58.0,2.43,58.0,2.71,12.49,47.59359,-54.27349
2020-11-11 10:54:01+00:00,16.0,4.72,16.0,6.31,12.49,47.59359,-54.27349
2020-11-11 11:04:01+00:00,30.0,6.55,32.0,7.09,12.49,47.59359,-54.27349
2020-11-11 11:14:01+00:00,36.0,10.89,38.0,12.69,12.41,47.59359,-54.27349
2020-11-11 11:24:01+00:00,72.0,10.21,70.0,12.16,12.41,47.59359,-54.27349
2020-11-11 11:34:01+00:00,71.0,10.43,72.0,11.6,12.41,47.59359,-54.27349
2020-11-11 11:44:01+00:00,71.0,9.83,68.0,11.23,12.41,47.59359,-54.27349
2020-11-11 11:54:01+00:00,72.0,8.34,70.0,9.78,12.41,47.59359,-54.27349
2020-11-11 12:04:01+00:00,72.0,8.32,71.0,9.52,12.41,47.59359,-54.27349
2020-11-11 12:14:01+00:00,72.0,7.3,68.0,8.63,12.49,47.59359,-54.27349
2020-11-11 12:24:01+00:00,71.0,7.07,73.0,8.03,12.49,47.59359,-54.27349
2020-11-11 12:34:01+00:00,70.0,6.97,74.0,7.68,12.49,47.59359,-54.27349
2020-11-11 12:44:01+00:00,69.0,6.75,68.0,8.12,12.49,47.59359,-54.27349
2020-11-11 12:54:01+00:00,69.0,6.67,64.0,7.99,12.49,47.59359,-54.27349
2020-11-11 13:04:01+00:00,71.0,6.83,72.0,8.45,12.49,47.59359,-54.27349
2020-11-11 13:14:01+00:00,73.0,5.49,74.0,6.47,12.73,47.59359,-54.27349
2020-11-11 13:24:01+00:00,71.0,4.39,79.0,6.63,12.73,47.59359,-54.27349
2020-11-11 13:34:01+00:00,73.0,5.06,65.0,6.29,12.73,47.59359,-54.27349
2020-11-11 13:44:01+00:00,73.0,6.47,71.0,9.13,12.73,47.59359,-54.27349
2020-11-11 13:54:01+00:00,67.0,7.04,69.0,8.02,12.73,47.59359,-54.27349
2020-11-11 14:04:01+00:00,67.0,6.37,68.0,7.08,12.73,47.59359,-54.27349
2020-11-11 14:14:01+00:00,72.0,6.08,67.0,7.04,13.05,47.59359,-54.27349
2020-11-11 14:24:01+00:00,69.0,6.27,70.0,6.98,13.05,47.59359,-54.27349
2020-11-11 14:34:01+00:00,70.0,6.36,72.0,6.96,13.05,47.59359,-54.27349
2020-11-11 14:44:01+00:00,68.0,5.76,69.0,6.31,13.05,47.59359,-54.27349
2020-11-11 14:54:01+00:00,71.0,5.4,66.0,6.28,13.05,47.59359,-54.27349
2020-11-11 15:04:01+00:00,72.0,4.99,74.0,6.29,13.05,47.59359,-54.27349
2020-11-11 15:14:01+00:00,69.0,4.88,67.0,5.89,13.6,47.59359,-54.27349
2020-11-11 15:24:01+00:00,83.0,2.65,98.0,4.41,13.6,47.59359,-54.27349
2020-11-11 15:34:01+00:00,95.0,3.2,96.0,5.41,13.6,47.59359,-54.27349
2020-11-11 15:44:01+00:00,74.0,2.83,71.0,4.7,13.6,47.59359,-54.27349
2020-11-11 15:54:01+00:00,87.0,3.66,58.0,5.79,13.6,47.59359,-54.27349
2020-11-11 16:04:01+00:00,75.0,2.5,80.0,3.76,13.6,47.59359,-54.27349
2020-11-11 16:14:01+00:00,75.0,2.94,72.0,3.9,13.68,47.59359,-54.27349
2020-11-11 16:24:01+00:00,69.0,5.69,69.0,6.46,13.68,47.59359,-54.27349
2020-11-11 16:34:01+00:00,73.0,4.24,73.0,5.22,13.68,47.59359,-54.27349
2020-11-11 16:44:01+00:00,74.0,3.59,76.0,4.96,13.68,47.59359,-54.27349
2020-11-11 16:54:01+00:00,68.0,4.16,67.0,4.88,13.68,47.59359,-54.27349
2020-11-11 17:04:01+00:00,64.0,3.91,69.0,4.52,13.68,47.59359,-54.27349
2020-11-11 17:14:01+00:00,68.0,3.36,70.0,3.86,13.68,47.59359,-54.27349
2020-11-11 17:24:01+00:00,87.0,2.35,70.0,4.03,13.68,47.59359,-54.27349
2020-11-11 17:34:01+00:00,82.0,3.03,97.0,4.12,13.68,47.59359,-54.27349
2020-11-11 17:44:01+00:00,77.0,3.29,68.0,5.19,13.68,47.59359,-54.27349
2020-11-11 17:54:01+00:00,73.0,2.48,65.0,3.49,13.68,47.59359,-54.27349
2020-11-11 18:04:01+00:00,79.0,2.0,83.0,2.92,13.68,47.59359,-54.27349
2020-11-11 18:14:01+00:00,76.0,2.65,93.0,3.63,13.21,47.59359,-54.27349
2020-11-11 18:24:01+00:00,71.0,2.94,71.0,4.36,13.21,47.59359,-54.27349
2020-11-11 18:34:01+00:00,98.0,2.25,109.0,3.97,13.21,47.59359,-54.27349
2020-11-11 18:44:01+00:00,101.0,2.94,93.0,4.87,13.21,47.59359,-54.27349
2020-11-11 18:54:01+00:00,118.0,3.35,125.0,4.36,13.21,47.59359,-54.27349
2020-11-11 19:04:01+00:00,101.0,1.5,103.0,3.24,13.21,47.59359,-54.27349
2020-11-11 19:14:01+00:00,98.0,1.95,78.0,3.0,12.97,47.59359,-54.27349
2020-11-11 19:24:01+00:00,100.0,2.35,117.0,3.61,12.97,47.59359,-54.27349
2020-11-11 19:34:01+00:00,84.0,1.64,72.0,2.38,12.97,47.59359,-54.27349
2020-11-11 19:44:01+00:00,82.0,2.44,70.0,3.52,12.97,47.59359,-54.27349
2020-11-11 19:54:01+00:00,90.0,1.98,94.0,2.63,12.97,47.59359,-54.27349
2020-11-11 20:04:01+00:00,111.0,2.07,117.0,2.97,12.97,47.59359,-54.27349
2020-11-11 20:14:01+00:00,127.0,2.52,127.0,2.8,12.73,47.59359,-54.27349
2020-11-11 20:24:01+00:00,137.0,1.84,149.0,2.06,12.73,47.59359,-54.27349
2020-11-11 20:34:01+00:00,145.0,2.27,141.0,2.61,12.73,47.59359,-54.27349
2020-11-11 20:44:01+00:00,149.0,1.95,148.0,2.19,12.73,47.59359,-54.27349
2020-11-11 20:54:01+00:00,166.0,3.5,165.0,3.83,12.73,47.59359,-54.27349
2020-11-11 21:04:01+00:00,175.0,3.38,169.0,3.83,12.73,47.59359,-54.27349
2020-11-11 21:14:01+00:00,188.0,4.2,189.0,4.62,12.73,47.59359,-54.27349
2020-11-11 21:24:01+00:00,188.0,4.9,189.0,5.51,12.73,47.59359,-54.27349
2020-11-11 21:34:01+00:00,204.0,5.92,205.0,6.75,12.73,47.59359,-54.27349
2020-11-11 21:44:01+00:00,215.0,6.14,216.0,6.95,12.73,47.59359,-54.27349
2020-11-11 21:54:01+00:00,218.0,6.64,218.0,7.4,12.73,47.59359,-54.27349
2020-11-11 22:04:01+00:00,211.0,5.79,210.0,6.83,12.73,47.59359,-54.27349
2020-11-11 22:14:01+00:00,218.0,7.47,217.0,8.57,12.65,47.59359,-54.27349
2020-11-11 22:24:01+00:00,217.0,7.64,216.0,8.68,12.65,47.59359,-54.27349
2020-11-11 22:34:01+00:00,218.0,9.91,216.0,11.46,12.65,47.59359,-54.27349
2020-11-11 22:44:01+00:00,218.0,9.23,214.0,11.04,12.65,47.59359,-54.27349
2020-11-11 22:54:01+00:00,209.0,10.72,210.0,11.82,12.65,47.59359,-54.27349
2020-11-11 23:04:01+00:00,216.0,9.88,222.0,12.29,12.65,47.59359,-54.27349
2020-11-11 23:14:01+00:00,216.0,9.73,219.0,10.81,12.65,47.59359,-54.27349
2020-11-11 23:24:01+00:00,217.0,10.77,217.0,12.16,12.65,47.59359,-54.27349
2020-11-11 23:34:01+00:00,216.0,10.59,217.0,12.57,12.65,47.59359,-54.27349
2020-11-11 23:44:01+00:00,216.0,10.89,218.0,12.5,12.65,47.59359,-54.27349
2020-11-11 23:54:01+00:00,213.0,11.09,216.0,13.21,12.65,47.59359,-54.27349
